Simultaneous Nadir Overpasses (SNOs) Predictions

Prediction of SNOs between AQUA and NPP Satellite Orbit:

Table of predicted SNOs for the next 14.0 days since TLE Epoch: 5/3/2025
Index Date (AQUA) Time (AQUA) Lat,Lon (AQUA) SZA (AQUA ) Date (NPP) Time (NPP) Lat,Lon (NPP) SZA (NPP ) Distance(km) Time Diff (sec)
1 05/04/2025 00:18:37 -81.29, -72.15 109.28 05/04/2025 00:18:10 -81.29, -72.20 109.25 0.78 27
2 05/04/2025 01:07:55 81.29, 95.59 70.71 05/04/2025 01:08:53 81.29, 95.77 70.65 3.07 58
3 05/06/2025 09:49:50 -81.29, 145.12 109.97 05/06/2025 09:49:08 -81.29, 145.29 109.97 2.83 42
4 05/06/2025 10:39:08 81.29, -47.17 70.02 05/06/2025 10:39:52 81.29, -47.17 70.00 0.19 44
5 05/08/2025 19:21:02 -81.28, 2.27 110.61 05/08/2025 19:20:07 -81.29, 2.33 110.59 1.20 55
6 05/08/2025 20:10:20 81.28, 169.94 69.38 05/08/2025 20:10:51 81.29, 169.82 69.38 2.14 31
7 05/11/2025 04:52:12 -81.29,-140.32 111.26 05/11/2025 04:51:05 -81.29,-140.30 111.22 0.32 67
8 05/11/2025 05:41:30 81.29, 27.31 68.74 05/11/2025 05:41:49 81.29, 27.15 68.75 2.67 19
9 05/13/2025 15:12:39 81.29,-115.45 68.14 05/13/2025 15:12:47 81.29,-115.57 68.16 2.15 8



Historial Predications of SNOs between AQUA and NPP
